Content
SEND FEEDBACK

Daily
Averages
Monthly
Summary
Turkmenistan

ASHGABAT, TURKMENISTAN


Home > Asia > Turkmenistan
Elevation: 775 feet     Latitude: 37 58N     Longitude: 058 20E

WEATHER
 
SELECT A DAY
Number of Records: 177,131;   Date Range: 3/15/97 - 7/22/14
 
SHARE

PRINT THIS DATA

[ ← Previous Day ]
WEATHER ALMANAC - APRIL 27, 2013
[ Next Day → ]
[ °C ]   °F
Weather ElementAverageHighLow
Temperature61.7 °F69.8 °F (11:00 am)51.8 °F (4:00 am)
Dewpoint40.9 °F47 °F (2:00 am)33.8 °F (10:00 am)
Humidity46.8 %77 % (2:00 am)20 % (11:00 am)
Barometer30.15 in30.26 in (11:00 pm)29.98 in (2:00 am)
Wind Speed13.3 mph26.8 mph (8:30 am)
Wind Gust35.8 mph (8:00 am)
Weather ElementAverage
Visibility6.2 mi
Wind DirectionW (270.9 °)

Weather ElementTotal
Precipitation---
Heating Degree Days4.2 (Base 65)
Growing Degree Days10.8 (Base 50)
Averaged from 34 records on April 27, 2013
WEATHER CONDITIONS BREAKOUT
WIND DIRECTION BREAKOUT
WEATHER BY HOUR - APRIL 27, 2013
[ °C ]   °F
Local TimeTemperatureDewpointHumidityBarometerVisibilityWind DirectionWind SpeedGust SpeedPrecipitationEventsConditions
1:00 AM55.4 °F46.4 °F72 %30.01 in6.2 miSouth (170°)4.5 mphClear
2:00 AM55.0 °F47.0 °F65 %29.99 in6.0 miSSE (150°)6.7 mph
2:00 AM53.6 °F46.4 °F77 %29.98 in6.2 miSE (140°)6.7 mphClear
3:00 AM53.6 °F46.4 °F77 %29.98 in6.2 miWest (260°)6.7 mphClear
4:00 AM51.8 °F44.6 °F76 %29.98 in6.2 miWest (260°)4.5 mphClear
5:00 AM52.0 °F46.0 °F74 %30.02 in6.0 miWNW (290°)11.2 mph
5:00 AM51.8 °F44.6 °F76 %30.01 in6.2 miWNW (300°)11.2 mphClear
6:00 AM59.0 °F41.0 °F51 %30.04 in6.2 miWest (280°)20.1 mphScattered Clouds
7:00 AM60.8 °F39.2 °F45 %30.06 in6.2 miWest (280°)17.9 mphMostly Cloudy
8:00 AM61.0 °F36.0 °F28 %30.11 in6.0 miWest (280°)24.6 mphScattered Clouds
8:00 AM60.8 °F37.4 °F42 %30.09 in6.2 miWNW (290°)24.6 mph35.8 mphMostly Cloudy
8:30 AM62.6 °F37.4 °F39 %30.12 in6.2 miWNW (290°)26.8 mphMostly Cloudy
9:00 AM64.4 °F35.6 °F34 %30.12 in6.2 miWNW (290°)22.4 mphMostly Cloudy
10:00 AM66.2 °F33.8 °F30 %30.15 in6.2 miWNW (300°)20.1 mphScattered Clouds
11:00 AM68.0 °F36.0 °F20 %30.19 in6.0 miWNW (290°)17.9 mphScattered Clouds
11:00 AM69.8 °F35.6 °F28 %30.18 in6.2 miWNW (300°)17.9 mphMostly Cloudy
12:00 PM69.8 °F33.8 °F27 %30.21 in6.2 miNW (310°)20.1 mphMostly Cloudy
1:00 PM69.8 °F35.6 °F28 %30.21 in6.2 miWNW (300°)20.1 mphOvercast
1:30 PM69.8 °F37.4 °F31 %30.21 in6.2 miNW (320°)15.7 mph26.8 mphOvercast
2:00 PM69.0 °F40.0 °F23 %30.21 in6.0 miNW (310°)20.1 mphOvercast
2:00 PM68.0 °F39.2 °F35 %30.21 in6.2 miNW (310°)17.9 mph29.1 mphOvercast
2:30 PM66.2 °F39.2 °F37 %30.21 in6.2 miNW (310°)17.9 mphOvercast
3:00 PM66.2 °F37.4 °F35 %30.21 in6.2 miNW (310°)17.9 mphOvercast
4:00 PM62.6 °F41.0 °F45 %30.21 in6.2 miNW (310°)15.7 mphOvercast
5:00 PM62.0 °F43.0 °F38 %30.22 in6.0 miWNW (290°)6.7 mphOvercast
5:00 PM62.6 °F41.0 °F45 %30.21 in6.2 miWNW (290°)6.7 mphOvercast
6:00 PM64.4 °F42.8 °F45 %30.21 in6.2 miWest (270°)4.5 mphMostly Cloudy
7:00 PM64.4 °F41.0 °F42 %30.21 in6.2 miWest (270°)6.7 mphMostly Cloudy
8:00 PM61.0 °F47.0 °F50 %30.22 in6.0 miWSW (240°)6.7 mphScattered Clouds
8:00 PM62.6 °F42.8 °F48 %30.21 in6.2 miWSW (240°)6.7 mphMostly Cloudy
9:00 PM60.8 °F42.8 °F52 %30.21 in6.2 miSW (230°)4.5 mphScattered Clouds
10:00 PM59.0 °F44.6 °F59 %30.24 in6.2 miSW (220°)6.7 mphScattered Clouds
11:00 PM57.0 °F45.0 °F53 %30.26 in6.0 miWSW (250°)6.7 mphPartly Cloudy
11:00 PM57.2 °F44.6 °F63 %30.24 in6.2 miWest (260°)6.7 mphScattered Clouds
Hourly data recorded from UTAA, located miles away from Ashgabat, Turkmenistan







STORIES FROM OUR PARTNERS